GW5295 Weather Reports


time (UTC)temp
F
wind
direction
speed
knots
gust
knots
rain 1hr
in
rain 24hr
in
rain mn
in
humidity
%
barometer
mb
20260506051015 47 269 13.0 18.2 0.00 0.00 0.00 70 1017.7
20260506050520 48 275 13.9 18.2 0.00 0.00 0.00 69 1017.7
20260506045014 48 254 13.0 20.9 0.00 0.00 0.00 69 1017.5
20260506044551 48 267 14.8 21.7 0.00 0.00 0.00 68 1017.4
20260506044017 49 269 16.5 22.6 0.00 0.00 0.00 68 1017.2
20260506043515 49 253 15.6 22.6 0.00 0.00 0.00 67 1017.1
20260506043046 49 270 12.2 15.6 0.00 0.00 0.00 66 1017.2
20260506042516 50 267 10.4 14.8 0.00 0.00 0.00 66 1017.2
20260506042015 50 273 9.6 14.8 0.00 0.00 0.00 66 1017.0
20260506041552 50 264 10.4 13.9 0.00 0.00 0.00 66 1016.9
20260506041015 50 292 9.6 17.4 0.00 0.00 0.00 65 1016.9
20260506040519 51 262 13.0 17.4 0.00 0.00 0.00 64 1016.8
20260506040107 51 265 10.4 15.6 0.00 0.00 0.00 64 1016.3
20260506035518 51 279 11.3 17.4 0.00 0.00 0.00 63 1016.1
20260506035016 51 293 12.2 17.4 0.00 0.00 0.00 63 1015.9
20260506034549 52 273 11.3 18.2 0.00 0.00 0.00 61 1016.0
20260506034016 52 273 13.0 17.4 0.00 0.00 0.00 61 1015.8
20260506033515 52 278 13.0 17.4 0.00 0.00 0.00 60 1016.0
20260506033047 53 261 12.2 15.6 0.00 0.00 0.00 58 1015.8
20260506032516 53 267 9.6 14.8 0.00 0.00 0.00 58 1015.7
20260506032013 54 272 11.3 17.4 0.00 0.00 0.00 56 1015.8
20260506031549 54 273 12.2 17.4 0.00 0.00 0.00 54 1015.8
20260506031015 54 272 10.4 17.4 0.00 0.00 0.00 54 1015.8
20260506030515 54 280 12.2 17.4 0.00 0.00 0.00 55 1015.4
20260506030056 55 263 11.3 20.0 0.00 0.00 0.00 55 1015.5
20260506025516 55 272 13.0 20.0 0.00 0.00 0.00 55 1015.3
20260506025016 55 296 11.3 17.4 0.00 0.00 0.00 55 1015.3
20260506024557 55 266 13.0 17.4 0.00 0.00 0.00 54 1015.4
20260506024016 55 255 13.0 17.4 0.00 0.00 0.00 54 1015.2
20260506023520 56 245 11.3 18.2 0.00 0.00 0.00 52 1015.4
20260506023050 56 250 13.9 18.2 0.00 0.00 0.00 53 1015.2
20260506022518 56 257 13.0 16.5 0.00 0.00 0.00 52 1015.1
20260506022017 56 264 10.4 16.5 0.00 0.00 0.00 52 1015.4
20260506021559 56 224 13.0 19.1 0.00 0.00 0.00 51 1015.0
20260506021019 57 248 14.8 19.1 0.00 0.00 0.00 52 1014.9
20260506020515 57 246 12.2 17.4 0.00 0.00 0.00 53 1015.2
20260506020044 57 260 13.0 17.4 0.00 0.00 0.00 53 1015.1
20260506015514 57 260 10.4 15.6 0.00 0.00 0.00 53 1015.3
20260506015019 58 257 9.6 14.8 0.00 0.00 0.00 51 1015.3
20260506014558 58 250 11.3 16.5 0.00 0.00 0.00 50 1015.1
20260506014019 58 269 10.4 16.5 0.00 0.00 0.00 51 1015.1
20260506013517 58 274 9.6 15.6 0.00 0.00 0.00 50 1015.0
20260506013053 58 247 12.2 16.5 0.00 0.00 0.00 49 1014.7
20260506012515 59 252 12.2 16.5 0.00 0.00 0.00 50 1014.7
20260506012021 59 260 9.6 13.9 0.00 0.00 0.00 50 1014.9
20260506011603 59 209 8.7 10.4 0.00 0.00 0.00 50 1014.9
20260506011015 60 244 6.1 12.2 0.00 0.00 0.00 50 1015.0
20260506010519 59 245 7.8 15.6 0.00 0.00 0.00 52 1015.0
20260506010050 59 256 10.4 20.0 0.00 0.00 0.00 52 1014.9
20260506005515 59 260 10.4 15.6 0.00 0.00 0.00 53 1015.0
20260506005015 59 250 11.3 16.5 0.00 0.00 0.00 53 1014.9
20260506004550 60 242 11.3 16.5 0.00 0.00 0.00 53 1015.0
20260506004015 60 255 7.8 15.6 0.00 0.00 0.00 53 1015.1
20260506003516 60 260 8.7 20.0 0.00 0.00 0.00 53 1015.2
20260506003043 59 245 12.2 20.0 0.00 0.00 0.00 54 1014.9
20260506002514 60 252 13.0 18.2 0.00 0.00 0.00 53 1014.7
20260506002015 60 277 12.2 17.4 0.00 0.00 0.00 54 1014.8
20260506001546 60 269 12.2 17.4 0.00 0.00 0.00 53 1014.8
20260506001016 61 241 10.4 16.5 0.00 0.00 0.00 54 1014.9
20260506000514 62 271 9.6 13.9 0.00 0.00 0.00 52 1015.0
20260506000049 61 236 10.4 15.6 0.00 0.00 0.00 54 1014.8
20260505235515 61 246 10.4 16.5 0.00 0.00 0.00 53 1014.9
20260505235015 61 254 13.0 16.5 0.00 0.00 0.00 51 1014.8
20260505234545 62 261 7.8 13.9 0.00 0.00 0.00 50 1014.7
20260505234018 63 257 6.1 11.3 0.00 0.00 0.00 50 1014.9
20260505233516 62 240 8.7 11.3 0.00 0.00 0.00 51 1014.8
20260505233049 62 227 6.1 11.3 0.00 0.00 0.00 51 1014.8
20260505232517 62 254 5.2 13.9 0.00 0.00 0.00 51 1014.9
20260505232015 62 210 7.8 13.9 0.00 0.00 0.00 51 1014.9
20260505231601 62 222 6.1 13.0 0.00 0.00 0.00 51 1014.8
20260505231022 61 226 7.8 11.3 0.00 0.00 0.00 50 1014.7
20260505230515 61 215 7.8 12.2 0.00 0.00 0.00 50 1014.6
20260505230050 61 266 7.8 12.2 0.00 0.00 0.00 50 1014.6
20260505225516 62 259 7.0 13.9 0.00 0.00 0.00 50 1014.6
20260505225017 61 234 5.2 13.9 0.00 0.00 0.00 51 1014.9
20260505224544 62 261 5.2 15.6 0.00 0.00 0.00 51 1014.7
20260505224017 61 232 6.1 15.6 0.00 0.00 0.00 51 1015.0
20260505223521 61 244 7.8 25.2 0.00 0.00 0.00 52 1015.0
20260505223103 61 306 6.1 25.2 0.00 0.00 0.00 53 1015.1
20260505222515 61 276 13.9 19.1 0.00 0.00 0.00 52 1014.9
20260505222017 60 269 11.3 22.6 0.00 0.00 0.00 53 1014.9
20260505221553 61 267 12.2 22.6 0.00 0.00 0.00 52 1014.7
20260505221018 61 263 14.8 20.9 0.00 0.00 0.00 51 1014.6
20260505220517 61 251 14.8 22.6 0.00 0.00 0.00 51 1014.5
20260505220045 61 262 12.2 22.6 0.00 0.00 0.00 51 1014.4
20260505215518 61 265 11.3 20.9 0.00 0.00 0.00 52 1014.3
20260505215018 61 250 12.2 20.9 0.00 0.00 0.00 51 1014.6
20260505214606 61 229 11.3 22.6 0.00 0.00 0.00 52 1014.5
20260505214015 62 262 13.0 22.6 0.00 0.00 0.00 52 1014.3
20260505213518 62 261 13.0 20.0 0.00 0.00 0.00 53 1014.2
20260505213057 62 257 10.4 18.2 0.00 0.00 0.00 53 1014.3
20260505212521 62 200 13.0 20.0 0.00 0.00 0.00 54 1014.1
20260505212016 63 221 9.6 20.0 0.00 0.00 0.00 54 1014.0
20260505211556 63 255 13.0 17.4 0.00 0.00 0.00 53 1014.0
20260505211019 64 265 11.3 15.6 0.00 0.00 0.00 53 1013.9
20260505210520 63 270 9.6 15.6 0.00 0.00 0.00 52 1014.1
20260505210054 63 257 11.3 15.6 0.00 0.00 0.00 53 1013.9
20260505205517 63 254 11.3 14.8 0.00 0.00 0.00 53 1013.9
20260505205018 63 265 11.3 13.9 0.00 0.00 0.00 53 1014.1
20260505204547 63 346 3.5 9.6 0.00 0.00 0.00 56 1013.9
20260505204014 62 294 5.2 9.6 0.00 0.00 0.00 55 1014.0
20260505203518 63 300 6.1 9.6 0.00 0.00 0.00 55 1014.1
20260505203046 62 275 5.2 7.8 0.00 0.00 0.00 56 1014.0
20260505202517 63 312 5.2 8.7 0.00 0.00 0.00 55 1013.9
20260505202015 62 11 2.6 8.7 0.00 0.00 0.00 56 1013.9
20260505201554 62 346 2.6 7.8 0.00 0.00 0.00 56 1013.8
20260505201018 62 305 4.3 8.7 0.00 0.00 0.00 57 1013.7
20260505200704 61 330 4.3 8.7 0.00 0.00 0.00 58 1014.0
20260505200047 61 317 3.5 10.4 0.00 0.00 0.00 58 1014.0
20260505195515 61 322 7.0 11.3 0.00 0.00 0.00 58 1013.9
20260505195014 61 289 7.0 9.6 0.00 0.00 0.00 59 1013.8
20260505194538 60 286 6.1 12.2 0.00 0.00 0.00 59 1014.0
20260505194019 60 289 7.8 12.2 0.00 0.00 0.00 60 1013.9
20260505193518 60 290 7.8 11.3 0.00 0.00 0.00 60 1013.9
20260505193038 60 289 7.8 11.3 0.00 0.00 0.00 60 1013.9
20260505192519 60 279 8.7 11.3 0.00 0.00 0.00 60 1013.9
20260505192013 60 296 5.2 12.2 0.00 0.00 0.00 61 1013.9
20260505191543 60 292 7.0 12.2 0.00 0.00 0.00 62 1013.8
20260505191016 59 286 6.1 12.2 0.00 0.00 0.00 63 1013.8
20260505190514 59 298 7.0 10.4 0.00 0.00 0.00 64 1013.8
20260505190043 59 285 7.0 11.3 0.00 0.00 0.00 65 1013.8
20260505185516 58 280 7.8 12.2 0.00 0.00 0.00 64 1013.7
20260505185017 58 282 8.7 11.3 0.00 0.00 0.00 64 1013.6
20260505184537 59 309 7.8 11.3 0.00 0.00 0.00 63 1013.6
20260505184014 59 306 7.8 10.4 0.00 0.00 0.00 64 1013.6
20260505183516 59 295 7.0 9.6 0.00 0.00 0.00 64 1013.5
20260505183052 59 294 7.0 9.6 0.00 0.00 0.00 63 1013.5
20260505182517 60 287 7.0 9.6 0.00 0.00 0.00 61 1013.5
20260505182015 60 315 6.1 10.4 0.00 0.00 0.00 60 1013.5
20260505181539 61 306 5.2 10.4 0.00 0.00 0.00 60 1013.4
20260505181015 61 315 5.2 8.7 0.00 0.00 0.00 61 1013.4
20260505180514 60 321 2.6 9.6 0.00 0.00 0.00 62 1013.3
20260505180051 59 304 5.2 9.6 0.00 0.00 0.00 63 1013.2
20260505175513 58 277 6.1 9.6 0.00 0.00 0.00 65 1013.1
20260505175013 57 284 6.1 10.4 0.00 0.00 0.00 68 1013.2
20260505174545 56 284 7.0 9.6 0.00 0.00 0.00 72 1013.2
20260505174015 55 310 5.2 8.7 0.00 0.00 0.00 76 1013.2
20260505173519 55 294 5.2 8.7 0.00 0.00 0.00 76 1013.2
20260505173037 55 306 6.1 7.8 0.00 0.00 0.00 74 1013.1
20260505172513 56 281 4.3 7.8 0.00 0.00 0.00 74 1013.2
20260505172015 56 275 4.3 7.0 0.00 0.00 0.00 71 1013.0
20260505171548 56 271 2.6 6.1 0.00 0.00 0.00 72 1013.0
20260505171015 56 272 2.6 7.0 0.00 0.00 0.00 73 1013.1
20260505170514 56 284 5.2 7.0 0.00 0.00 0.00 72 1013.0
20260505170040 56 288 2.6 6.1 0.00 0.00 0.00 73 1013.0
20260505165514 55 275 3.5 6.1 0.00 0.00 0.00 74 1012.9
20260505165019 55 263 3.5 6.1 0.00 0.00 0.00 74 1012.9
20260505164538 55 263 3.5 5.2 0.00 0.00 0.00 73 1013.1
20260505164016 55 271 3.5 5.2 0.00 0.00 0.00 72 1013.0
20260505163515 55 275 2.6 5.2 0.00 0.00 0.00 71 1012.8
20260505163038 57 296 2.6 7.0 0.00 0.00 0.00 69 1012.7
20260505162514 58 279 4.3 7.0 0.00 0.00 0.00 65 1012.5
20260505162013 60 280 2.6 5.2 0.00 0.00 0.00 61 1012.6
20260505161537 61 65 0.0 2.6 0.00 0.00 0.00 61 1012.5
20260505161015 61 65 0.9 3.5 0.00 0.00 0.00 62 1012.8
20260505160516 60 65 1.7 3.5 0.00 0.00 0.00 63 1012.5
20260505153040 56 86 2.6 3.5 0.00 0.00 0.00 71 1012.2
20260505152515 55 71 0.9 3.5 0.00 0.00 0.00 74 1012.2
20260505152016 54 296 0.0 1.7 0.00 0.00 0.00 75 1012.4
20260505151538 53 296 0.0 1.7 0.00 0.00 0.00 76 1012.3
20260505151015 53 296 0.9 2.6 0.00 0.00 0.00 77 1012.3
20260505150525 52 296 0.9 3.5 0.00 0.00 0.00 77 1012.2
20260505140516 51 11 0.9 3.5 0.00 0.00 0.00 81 1011.7
20260505125013 57 98 0.9 3.5 0.00 0.00 0.00 57 1011.1
20260505124543 58 98 1.7 3.5 0.00 0.00 0.00 56 1010.8
20260505124017 58 98 1.7 7.0 0.00 0.00 0.00 55 1010.8
20260505123519 57 98 4.3 7.0 0.00 0.00 0.00 56 1010.8
20260505123048 56 97 3.5 6.1 0.00 0.00 0.00 60 1010.8
20260505122519 56 97 5.2 7.0 0.00 0.00 0.00 61 1010.8
20260505122015 55 103 4.3 7.0 0.00 0.00 0.00 62 1010.9
20260505121559 56 216 2.6 4.3 0.00 0.00 0.00 61 1011.0
20260505121015 55 216 1.7 2.6 0.00 0.00 0.00 63 1011.2
20260505120517 55 216 1.7 2.6 0.00 0.00 0.00 63 1011.1
20260505120056 55 216 0.0 3.5 0.00 0.00 0.00 63 1011.1
20260505115513 55 216 0.9 3.5 0.00 0.00 0.00 65 1011.1
20260505115020 55 216 2.6 3.5 0.00 0.00 0.00 63 1011.0
20260505114556 57 107 0.0 2.6 0.00 0.00 0.00 58 1011.1
20260505114015 58 107 0.0 0.0 0.00 0.00 0.00 56 1010.9
20260505113517 58 107 0.0 2.6 0.00 0.00 0.00 55 1010.9
20260505113059 58 107 0.9 2.6 0.00 0.00 0.00 55 1010.9
20260505112515 58 107 1.7 3.5 0.00 0.00 0.00 55 1011.0
20260505112432 58 107 2.6 3.5 0.00 0.00 0.00 54 1010.9
20260505111601 58 107 1.7 3.5 0.00 0.00 0.00 55 1010.9
20260505111022 58 107 1.7 2.6 0.00 0.00 0.00 56 1010.8
20260505110518 58 107 1.7 2.6 0.00 0.00 0.00 56 1010.9
20260505110112 58 107 1.7 2.6 0.00 0.00 0.00 57 1010.9
20260505102022 58 107 3.5 6.1 0.00 0.00 0.00 59 1010.9
20260505101556 58 107 4.3 6.1 0.00 0.00 0.00 60 1010.9
20260505101018 57 123 2.6 3.5 0.00 0.00 0.00 61 1010.9
20260505100520 57 123 1.7 2.6 0.00 0.00 0.00 61 1010.9
20260505100058 56 123 1.7 2.6 0.00 0.00 0.00 63 1010.8
20260505095519 55 271 0.9 3.5 0.00 0.00 0.00 65 1011.0
20260505095015 55 238 1.7 3.5 0.00 0.00 0.00 68 1011.1
20260505094926 56 272 1.7 6.1 0.00 0.00 0.00 67 1010.9
20260505094011 57 272 2.6 6.1 0.00 0.00 0.00 63 1011.1
20260505093515 60 250 2.6 4.3 0.00 0.00 0.00 55 1010.9
20260505093050 63 123 1.7 6.1 0.00 0.00 0.00 46 1010.8
20260505092518 62 103 3.5 6.1 0.00 0.00 0.00 46 1010.7
20260505092015 63 94 3.5 7.0 0.00 0.00 0.00 46 1010.6
20260505091547 63 88 4.3 7.0 0.00 0.00 0.00 46 1010.6
20260505091014 64 102 4.3 7.8 0.00 0.00 0.00 44 1010.7
20260505090512 64 119 4.3 8.7 0.00 0.00 0.00 44 1010.7
20260505090041 64 109 6.1 7.8 0.00 0.00 0.00 44 1010.5
20260505085517 64 111 5.2 7.8 0.00 0.00 0.00 44 1010.6
20260505085014 64 119 5.2 7.0 0.00 0.00 0.00 44 1010.6
20260505084541 64 111 5.2 7.0 0.00 0.00 0.00 44 1010.7
20260505084013 64 120 3.5 6.1 0.00 0.00 0.00 44 1010.6
20260505083512 64 115 3.5 5.2 0.00 0.00 0.00 43 1010.7
20260505083037 65 105 1.7 6.1 0.00 0.00 0.00 43 1010.7
20260505082516 65 105 2.6 6.1 0.00 0.00 0.00 43 1010.7
20260505082017 65 111 4.3 7.8 0.00 0.00 0.00 43 1010.7
20260505081544 65 105 4.3 7.8 0.00 0.00 0.00 43 1010.6
20260505081019 65 120 4.3 7.0 0.00 0.00 0.00 43 1010.6
20260505080514 65 128 5.2 8.7 0.00 0.00 0.00 43 1010.7
20260505080044 65 118 6.1 8.7 0.00 0.00 0.00 43 1010.7
20260505075515 65 113 5.2 8.7 0.00 0.00 0.00 43 1010.7
20260505075019 65 109 5.2 8.7 0.00 0.00 0.00 43 1010.7
20260505074539 65 115 6.1 7.8 0.00 0.00 0.00 43 1010.7
20260505074015 65 117 5.2 7.8 0.00 0.00 0.00 43 1010.7
20260505073518 65 132 5.2 7.8 0.00 0.00 0.00 43 1010.7
20260505073050 64 109 6.1 7.8 0.00 0.00 0.00 44 1010.7
20260505072514 63 121 4.3 7.0 0.00 0.00 0.00 46 1010.7
20260505072013 64 134 1.7 6.1 0.00 0.00 0.00 46 1010.6
20260505071549 64 122 2.6 6.1 0.00 0.00 0.00 45 1010.7
20260505071014 65 122 0.9 3.5 0.00 0.00 0.00 44 1010.8
20260505070521 65 122 1.7 3.5 0.00 0.00 0.00 44 1010.8
20260505070045 65 122 2.6 3.5 0.00 0.00 0.00 44 1010.8
20260505065513 65 96 2.6 3.5 0.00 0.00 0.00 44 1010.8
20260505065015 65 96 2.6 5.2 0.00 0.00 0.00 44 1010.7
20260505064541 65 96 1.7 5.2 0.00 0.00 0.00 46 1010.7
20260505064014 64 96 2.6 5.2 0.00 0.00 0.00 46 1010.7
20260505063515 65 96 2.6 5.2 0.00 0.00 0.00 45 1010.7
20260505063035 64 88 2.6 3.5 0.00 0.00 0.00 47 1010.6
20260505062515 64 88 1.7 5.2 0.00 0.00 0.00 48 1010.7
20260505062015 63 74 2.6 6.1 0.00 0.00 0.00 50 1010.6
20260505061537 62 95 1.7 6.1 0.00 0.00 0.00 53 1010.7
20260505061016 61 95 3.5 6.1 0.00 0.00 0.00 56 1010.7
20260505060510 61 82 2.6 4.3 0.00 0.00 0.00 59 1010.7
20260505055854 61 82 0.0 0.0 0.00 0.00 0.00 58 1010.9